| time (UTC) | temp C | wind direction | speed KPH | gust KPH | rain 1hr cm | rain 24hr cm | rain mn cm | humidity % | barometer mb |
| 20260906095525 | 21 | 280 | 1.6 | 3.2 | 0.00 | 0.00 | 0.00 | 97 | 1017.6 |
| 20260906094525 | 21 | 301 | 1.6 | 4.8 | 0.00 | 0.00 | 0.00 | 97 | 1017.6 |
| 20260906093544 | 21 | 272 | 1.6 | 3.2 | 0.00 | 0.00 | 0.00 | 97 | 1017.6 |
| 20260906092544 | 21 | 63 | 0.0 | 3.2 | 0.00 | 0.00 | 0.00 | 97 | 1017.4 |
| 20260906091605 | 21 | 274 | 1.6 | 3.2 | 0.00 | 0.00 | 0.00 | 97 | 1017.4 |
| 20260906090524 | 21 | 304 | 1.6 | 3.2 | 0.00 | 0.00 | 0.00 | 97 | 1017.2 |
| 20260906085524 | 21 | 290 | 1.6 | 4.8 | 0.00 | 0.00 | 0.00 | 97 | 1017.3 |
| 20260906084524 | 21 | 281 | 1.6 | 3.2 | 0.00 | 0.00 | 0.00 | 97 | 1017.4 |
| 20260906083524 | 21 | 63 | 1.6 | 3.2 | 0.00 | 0.00 | 0.00 | 97 | 1017.4 |
| 20260906082524 | 21 | 283 | 0.0 | 3.2 | 0.00 | 0.00 | 0.00 | 97 | 1017.4 |
| 20260906081529 | 21 | 293 | 1.6 | 3.2 | 0.00 | 0.00 | 0.00 | 97 | 1017.2 |
| 20260906080544 | 21 | 315 | 0.0 | 4.8 | 0.00 | 0.00 | 0.00 | 97 | 1017.1 |
| 20260906075525 | 21 | 14 | 1.6 | 3.2 | 0.00 | 0.00 | 0.00 | 97 | 1017.1 |
| 20260906074525 | 21 | 99 | 0.0 | 3.2 | 0.00 | 0.00 | 0.00 | 97 | 1017.0 |
| 20260906073524 | 21 | 297 | 1.6 | 3.2 | 0.00 | 0.00 | 0.00 | 97 | 1017.0 |
| 20260906072524 | 21 | 301 | 0.0 | 3.2 | 0.00 | 0.00 | 0.00 | 96 | 1017.0 |
| 20260906071524 | 21 | 0.0 | 3.2 | 0.00 | 0.00 | 0.00 | 96 | 1017.0 | |
| 20260906070525 | 21 | 272 | 0.0 | 3.2 | 0.00 | 0.00 | 0.00 | 96 | 1016.9 |
| 20260906065524 | 21 | 305 | 0.0 | 3.2 | 0.00 | 0.00 | 0.00 | 96 | 1017.0 |
| 20260906064524 | 21 | 315 | 1.6 | 4.8 | 0.00 | 0.00 | 0.00 | 96 | 1017.1 |
| 20260906063524 | 21 | 341 | 1.6 | 4.8 | 0.00 | 0.00 | 0.00 | 96 | 1017.2 |
| 20260906062524 | 21 | 295 | 1.6 | 4.8 | 0.00 | 0.00 | 0.00 | 96 | 1017.1 |
| 20260906061544 | 21 | 307 | 0.0 | 3.2 | 0.00 | 0.00 | 0.00 | 96 | 1017.1 |
| 20260906060525 | 21 | 273 | 0.0 | 3.2 | 0.00 | 0.00 | 0.00 | 96 | 1017.2 |
| 20260906055525 | 21 | 12 | 0.0 | 3.2 | 0.00 | 0.00 | 0.00 | 96 | 1017.2 |
| 20260906054525 | 21 | 323 | 0.0 | 3.2 | 0.00 | 0.00 | 0.00 | 96 | 1017.4 |
| 20260906053525 | 22 | 281 | 1.6 | 4.8 | 0.00 | 0.00 | 0.00 | 96 | 1017.7 |
| 20260906052525 | 22 | 244 | 0.0 | 3.2 | 0.00 | 0.00 | 0.00 | 96 | 1017.8 |
| 20260906051524 | 22 | 59 | 0.0 | 3.2 | 0.00 | 0.00 | 0.00 | 96 | 1017.9 |
| 20260906050544 | 22 | 286 | 1.6 | 4.8 | 0.00 | 0.00 | 0.00 | 95 | 1018.0 |
| 20260906045524 | 22 | 224 | 0.0 | 3.2 | 0.00 | 0.00 | 0.00 | 95 | 1018.1 |
| 20260906044524 | 22 | 343 | 3.2 | 6.4 | 0.00 | 0.00 | 0.00 | 95 | 1018.1 |
| 20260906043524 | 22 | 193 | 1.6 | 4.8 | 0.00 | 0.00 | 0.00 | 95 | 1018.1 |
| 20260906042524 | 22 | 330 | 3.2 | 6.4 | 0.00 | 0.00 | 0.00 | 95 | 1018.1 |
| 20260906041524 | 22 | 266 | 1.6 | 4.8 | 0.00 | 0.00 | 0.00 | 94 | 1018.1 |
| 20260906040525 | 22 | 210 | 1.6 | 4.8 | 0.00 | 0.00 | 0.00 | 94 | 1018.2 |
| 20260906035544 | 22 | 343 | 3.2 | 6.4 | 0.00 | 0.00 | 0.00 | 93 | 1017.9 |
| 20260906034524 | 23 | 292 | 0.0 | 6.4 | 0.00 | 0.00 | 0.00 | 92 | 1018.1 |
| 20260906033524 | 23 | 321 | 1.6 | 4.8 | 0.00 | 0.00 | 0.00 | 92 | 1018.0 |
| 20260906032524 | 23 | 296 | 3.2 | 3.2 | 0.00 | 0.00 | 0.00 | 93 | 1017.9 |
| 20260906031524 | 23 | 298 | 3.2 | 6.4 | 0.00 | 0.00 | 0.00 | 94 | 1017.9 |
| 20260906030525 | 23 | 257 | 0.0 | 3.2 | 0.00 | 0.00 | 0.00 | 94 | 1017.9 |
| 20260906025545 | 23 | 322 | 1.6 | 3.2 | 0.00 | 0.00 | 0.00 | 94 | 1017.9 |
| 20260906024525 | 23 | 288 | 0.0 | 3.2 | 0.00 | 0.00 | 0.00 | 94 | 1017.8 |
| 20260906023525 | 23 | 293 | 1.6 | 3.2 | 0.00 | 0.00 | 0.00 | 94 | 1017.6 |
| 20260906022525 | 24 | 303 | 0.0 | 3.2 | 0.00 | 0.00 | 0.00 | 93 | 1017.4 |
| 20260906021525 | 24 | 269 | 1.6 | 4.8 | 0.00 | 0.00 | 0.00 | 93 | 1017.5 |
| 20260906020524 | 24 | 0.0 | 3.2 | 0.00 | 0.00 | 0.00 | 92 | 1017.6 | |
| 20260906015525 | 25 | 315 | 1.6 | 3.2 | 0.00 | 0.00 | 0.00 | 92 | 1017.8 |
| 20260906014605 | 25 | 278 | 1.6 | 4.8 | 0.00 | 0.00 | 0.00 | 91 | 1017.7 |
| 20260906013524 | 25 | 320 | 0.0 | 3.2 | 0.00 | 0.00 | 0.00 | 91 | 1017.7 |
| 20260906012544 | 25 | 278 | 1.6 | 4.8 | 0.00 | 0.00 | 0.00 | 91 | 1017.4 |
| 20260906011524 | 25 | 256 | 3.2 | 3.2 | 0.00 | 0.00 | 0.00 | 90 | 1017.5 |
| 20260906010524 | 25 | 70 | 0.0 | 3.2 | 0.00 | 0.00 | 0.00 | 90 | 1017.2 |
| 20260906005524 | 25 | 324 | 1.6 | 3.2 | 0.00 | 0.00 | 0.00 | 89 | 1016.9 |
| 20260906004525 | 25 | 269 | 0.0 | 1.6 | 0.00 | 0.00 | 0.00 | 89 | 1016.7 |
| 20260906003524 | 26 | 268 | 1.6 | 3.2 | 0.00 | 0.00 | 0.00 | 87 | 1017.1 |
| 20260906002544 | 26 | 294 | 1.6 | 3.2 | 0.00 | 0.00 | 0.00 | 86 | 1017.0 |
| 20260906001524 | 26 | 309 | 1.6 | 3.2 | 0.00 | 0.00 | 0.00 | 88 | 1016.8 |
| 20260906000524 | 27 | 267 | 1.6 | 4.8 | 0.00 | 0.00 | 0.00 | 85 | 1016.8 |
| 20260905235545 | 27 | 301 | 1.6 | 3.2 | 0.00 | 0.00 | 0.00 | 86 | 1016.8 |
| 20260905234524 | 27 | 0.0 | 3.2 | 0.00 | 0.00 | 0.00 | 84 | 1016.8 | |
| 20260905233524 | 28 | 265 | 1.6 | 3.2 | 0.00 | 0.00 | 0.00 | 83 | 1016.8 |
| 20260905232524 | 28 | 286 | 1.6 | 3.2 | 0.00 | 0.00 | 0.00 | 81 | 1016.7 |
| 20260905231524 | 28 | 291 | 1.6 | 3.2 | 0.00 | 0.00 | 0.00 | 79 | 1016.6 |
| 20260905230524 | 28 | 305 | 3.2 | 6.4 | 0.00 | 0.00 | 0.00 | 77 | 1016.5 |
| 20260905225525 | 29 | 292 | 3.2 | 6.4 | 0.00 | 0.00 | 0.00 | 77 | 1016.5 |
| 20260905224525 | 30 | 280 | 3.2 | 4.8 | 0.00 | 0.00 | 0.00 | 74 | 1016.4 |
| 20260905223525 | 30 | 306 | 4.8 | 6.4 | 0.00 | 0.00 | 0.00 | 73 | 1016.3 |
| 20260905222524 | 30 | 312 | 4.8 | 6.4 | 0.00 | 0.00 | 0.00 | 72 | 1016.3 |
| 20260905221524 | 31 | 286 | 3.2 | 4.8 | 0.00 | 0.00 | 0.00 | 68 | 1016.3 |
| 20260905220524 | 32 | 293 | 4.8 | 4.8 | 0.00 | 0.00 | 0.00 | 64 | 1016.5 |
| 20260905215525 | 32 | 284 | 3.2 | 4.8 | 0.00 | 0.00 | 0.00 | 63 | 1016.6 |
| 20260905214524 | 32 | 287 | 3.2 | 4.8 | 0.00 | 0.00 | 0.00 | 63 | 1016.8 |
| 20260905213524 | 32 | 279 | 3.2 | 4.8 | 0.00 | 0.00 | 0.00 | 62 | 1016.8 |
| 20260905212524 | 32 | 275 | 3.2 | 6.4 | 0.00 | 0.00 | 0.00 | 62 | 1016.8 |
| 20260905211524 | 32 | 281 | 3.2 | 6.4 | 0.00 | 0.00 | 0.00 | 62 | 1017.0 |
| 20260905210545 | 32 | 292 | 4.8 | 6.4 | 0.00 | 0.00 | 0.00 | 63 | 1017.2 |
| 20260905205545 | 32 | 281 | 4.8 | 6.4 | 0.00 | 0.00 | 0.00 | 64 | 1017.1 |
| 20260905204545 | 32 | 275 | 4.8 | 6.4 | 0.00 | 0.00 | 0.00 | 63 | 1017.1 |
| 20260905203545 | 31 | 271 | 3.2 | 6.4 | 0.00 | 0.00 | 0.00 | 65 | 1017.4 |
| 20260905202525 | 31 | 271 | 3.2 | 6.4 | 0.00 | 0.00 | 0.00 | 65 | 1017.5 |
| 20260905201525 | 31 | 221 | 3.2 | 6.4 | 0.00 | 0.00 | 0.00 | 67 | 1017.6 |
| 20260905200525 | 30 | 265 | 1.6 | 6.4 | 0.00 | 0.00 | 0.00 | 68 | 1017.7 |
| 20260905195525 | 30 | 273 | 1.6 | 4.8 | 0.00 | 0.00 | 0.00 | 70 | 1017.8 |
| 20260905194525 | 29 | 301 | 1.6 | 4.8 | 0.00 | 0.00 | 0.00 | 74 | 1018.0 |
| 20260905193545 | 29 | 297 | 3.2 | 4.8 | 0.00 | 0.00 | 0.00 | 73 | 1018.0 |
| 20260905192545 | 29 | 63 | 1.6 | 4.8 | 0.00 | 0.00 | 0.00 | 73 | 1018.1 |
| 20260905191524 | 29 | 301 | 3.2 | 3.2 | 0.00 | 0.00 | 0.00 | 77 | 1018.5 |
| 20260905190524 | 29 | 298 | 3.2 | 4.8 | 0.00 | 0.00 | 0.00 | 77 | 1018.7 |
| 20260905185545 | 30 | 283 | 1.6 | 4.8 | 0.00 | 0.00 | 0.00 | 73 | 1018.7 |
| 20260905184525 | 30 | 302 | 3.2 | 4.8 | 0.00 | 0.00 | 0.00 | 72 | 1018.2 |
| 20260905183525 | 31 | 304 | 1.6 | 3.2 | 0.00 | 0.00 | 0.00 | 69 | 1017.6 |
| 20260905182544 | 31 | 313 | 4.8 | 6.4 | 0.00 | 0.00 | 0.00 | 65 | 1018.3 |
| 20260905181524 | 32 | 270 | 3.2 | 4.8 | 0.00 | 0.00 | 0.00 | 60 | 1018.1 |
| 20260905180524 | 33 | 303 | 3.2 | 6.4 | 0.00 | 0.00 | 0.00 | 57 | 1018.5 |
| 20260905175524 | 35 | 292 | 1.6 | 6.4 | 0.00 | 0.00 | 0.00 | 53 | 1018.4 |
| 20260905174524 | 35 | 236 | 3.2 | 6.4 | 0.00 | 0.00 | 0.00 | 51 | 1018.5 |
| 20260905173524 | 35 | 178 | 4.8 | 9.7 | 0.00 | 0.00 | 0.00 | 52 | 1018.7 |
| 20260905172524 | 35 | 230 | 4.8 | 9.7 | 0.00 | 0.00 | 0.00 | 51 | 1018.4 |
| 20260905171524 | 34 | 266 | 1.6 | 6.4 | 0.00 | 0.00 | 0.00 | 54 | 1018.7 |
| 20260905170525 | 35 | 298 | 1.6 | 4.8 | 0.00 | 0.00 | 0.00 | 53 | 1018.8 |
| 20260905165525 | 35 | 262 | 4.8 | 6.4 | 0.00 | 0.00 | 0.00 | 55 | 1019.0 |
| 20260905164527 | 33 | 248 | 3.2 | 6.4 | 0.00 | 0.00 | 0.00 | 56 | 1019.1 |
| 20260905163524 | 33 | 238 | 3.2 | 9.7 | 0.00 | 0.00 | 0.00 | 58 | 1019.2 |
| 20260905162524 | 33 | 217 | 3.2 | 9.7 | 0.00 | 0.00 | 0.00 | 61 | 1019.4 |
| 20260905161525 | 33 | 215 | 1.6 | 6.4 | 0.00 | 0.00 | 0.00 | 61 | 1019.3 |
| 20260905160544 | 32 | 234 | 1.6 | 4.8 | 0.00 | 0.00 | 0.00 | 62 | 1019.3 |
| 20260905155524 | 32 | 263 | 4.8 | 6.4 | 0.00 | 0.00 | 0.00 | 64 | 1019.3 |
| 20260905154604 | 32 | 236 | 1.6 | 6.4 | 0.00 | 0.00 | 0.00 | 67 | 1019.4 |
| 20260905153545 | 31 | 247 | 1.6 | 3.2 | 0.00 | 0.00 | 0.00 | 69 | 1019.4 |
| 20260905152524 | 31 | 215 | 1.6 | 4.8 | 0.00 | 0.00 | 0.00 | 70 | 1019.4 |
| 20260905151537 | 30 | 254 | 3.2 | 3.2 | 0.00 | 0.00 | 0.00 | 71 | 1019.6 |
| 20260905130026 | 24 | 0.0 | 3.2 | 0.00 | 0.00 | 0.00 | 88 | 1020.5 | |
| 20260905125027 | 23 | 0.0 | 3.2 | 0.00 | 0.00 | 0.00 | 89 | 1020.5 | |
| 20260905124026 | 23 | 192 | 0.0 | 3.2 | 0.00 | 0.00 | 0.00 | 92 | 1020.5 |
| 20260905123026 | 22 | 0.0 | 1.6 | 0.00 | 0.00 | 0.00 | 95 | 1020.4 | |
| 20260905122046 | 22 | 0.0 | 3.2 | 0.00 | 0.00 | 0.00 | 98 | 1020.4 | |
| 20260905121027 | 21 | 0.0 | 1.6 | 0.00 | 0.00 | 0.00 | 98 | 1020.4 | |
| 20260905120026 | 21 | 302 | 1.6 | 3.2 | 0.00 | 0.00 | 0.00 | 98 | 1020.1 |
| 20260905115026 | 21 | 327 | 1.6 | 1.6 | 0.00 | 0.00 | 0.00 | 98 | 1019.8 |
| 20260905114046 | 21 | 282 | 0.0 | 3.2 | 0.00 | 0.00 | 0.00 | 98 | 1019.8 |
| 20260905113026 | 21 | 329 | 1.6 | 3.2 | 0.00 | 0.00 | 0.00 | 98 | 1019.7 |
| 20260905112126 | 21 | 0.0 | 3.2 | 0.00 | 0.00 | 0.00 | 98 | 1019.7 | |
| 20260905111026 | 21 | 295 | 0.0 | 3.2 | 0.00 | 0.00 | 0.00 | 98 | 1019.5 |
| 20260905110025 | 21 | 329 | 1.6 | 3.2 | 0.00 | 0.00 | 0.00 | 97 | 1019.3 |
| 20260905105025 | 21 | 327 | 1.6 | 3.2 | 0.00 | 0.00 | 0.00 | 97 | 1019.2 |
| 20260905104027 | 21 | 301 | 1.6 | 3.2 | 0.00 | 0.00 | 0.00 | 97 | 1019.2 |
| 20260905103025 | 21 | 306 | 0.0 | 3.2 | 0.00 | 0.00 | 0.00 | 97 | 1019.2 |
| 20260905102025 | 21 | 274 | 1.6 | 3.2 | 0.00 | 0.00 | 0.00 | 97 | 1018.9 |
| 20260905101025 | 21 | 86 | 0.0 | 3.2 | 0.00 | 0.00 | 0.00 | 97 | 1018.8 |
| 20260905100025 | 21 | 287 | 1.6 | 3.2 | 0.00 | 0.00 | 0.00 | 97 | 1018.8 |